{"data":{"norad_id":66135,"epoch":"2026-09-20T13:20:40.749216Z","epoch_age_seconds":95598,"freshness":"FRESH","line1":"1 66135U 25237X   26263.55602719  .00014436  00000+0  43745-3 0  9997","line2":"2 66135  53.1567 213.1979 0001283 104.1129 256.0017 15.34408860 52427","mean_motion":15.3440886,"eccentricity":0.0001283,"inclination_deg":53.1567,"raan_deg":213.1979,"arg_perigee_deg":104.1129,"mean_anomaly_deg":256.0017,"bstar":0.00043745,"rev_number":5242,"period_min":93.847216184609,"perigee_km":461.79923012245,"apogee_km":463.55458297087,"semimajor_km":6840.8139065467,"source":"CELESTRAK","updated_at":"2026-09-21T09:00:35.810639Z"}}